Location: Agendoh
(31.0664°N, 8.9343°W)
Time: 09:12:19
(UTC+00:00)

Chandra Rocket (1) - Pass Details

Date: 06 December 2021
Orbit: 356 x 10983 km, 28.4° (Epoch: 24 January)

Event Time Altitude Azimuth Distance (km) Brightness Sun altitude
Exits shadow 06:04:19 11° 222° (SW) 1,533 3.8 -16.0°
Maximum altitude 06:04:33 11° 217° (SW) 1,500 3.8 -15.9°
Drops below altitude 10° 06:05:14 10° 203° (SSW) 1,456 3.9 -15.8°
Sets 06:08:20 0° 154° (SSE) 2,151 5.5 -15.1°
